Regional Weather Roundup
Issued by NWS

Home | Current Version | Previous Version | Graphics & Text | Print | Product List | Glossary Off
Versions: 1 2 3 4 5 6 7 8 9 10 11 12 13 14 15 16 17 18 19 20 21 22 23 24 25 26 27 28 29 30 31 32 33 34 35 36 37 38 39 40 41 42 43 44 45 46 47 48 49 50

000
ASUS43 KDMX 201006
RWRIA

WEATHER ROUNDUP FOR IOWA
NATIONAL WEATHER SERVICE DES MOINES IA
500 AM CDT WED SEP 20 2017

NOTE: "FAIR" INDICATES FEW OR NO CLOUDS BELOW 12,000 FEET WITH NO
SIGNIFICANT WEATHER AND/OR OBSTRUCTIONS TO VISIBILITY.

* - THESE STATIONS ARE NOT NWS STATIONS...THUS NOT UNDER NWS
QUALITY CONTROL.  THEY ALSO DO NOT REPORT WEATHER SUCH
AS PRECIPITATION OR FOG.

IAZ001>003-012>014-020>022-031>034-043>046-201100-
   NORTHWEST IOWA

CITY           SKY/WX    TMP DP  RH WIND       PRES   REMARKS
CARROLL *      CLOUDY    75  70  83 SW6G16    29.66R
CHEROKEE *     CLOUDY    59  59 100 CALM      29.67S
DENISON *      PTCLDY    66  61  82 NE6       29.68S
LE MARS *      CLOUDY    61  59  94 CALM      29.70R
ORANGE CITY *  CLOUDY    63  61  94 CALM      29.69R
SHELDON *      CLOUDY    61  59  94 W6        29.67R
SIOUX CITY     CLOUDY    61  58  90 W7        29.70R
SPENCER        CLOUDY    59  57  93 S5        29.66F
STORM LAKE *   MOCLDY    63  57  82 N6        29.68R
$$

IAZ055>058-069>071-079>083-090>094-201100-
   SOUTHWEST IOWA

CITY           SKY/WX    TMP DP  RH WIND       PRES   REMARKS
ATLANTIC *     CLEAR     73  70  88 S9        29.67S
AUDUBON *      CLEAR     73  68  83 S7        29.68S
CLARINDA *     CLOUDY    73  70  88 SW6       29.71R
COUNCIL BLFS * CLOUDY    73  73 100 S9        29.65S
CRESTON *      CLOUDY    72 -36   1 S9        29.73R
HARLAN  *      MOCLDY    73  72  94 S10       29.69S
LAMONI         CLOUDY    71  68  90 S9        29.72R
RED OAK *      CLEAR     73  70  88 S5        29.68R
SHENANDOAH *   PTCLDY    73  70  88 S8        29.67F
$$

IAZ047>049-059>061-072>074-084-201100-
   CENTRAL IOWA

CITY           SKY/WX    TMP DP  RH WIND       PRES   REMARKS
AMES           CLEAR     70  68  93 S8        29.68R
ANKENY *       CLOUDY    73  68  83 S7        29.69R
BOONE *        CLEAR     73  68  83 S8        29.67S
CHARITON *     CLOUDY    73  68  83 S13G20    29.71S
DES MOINES     CLOUDY    76  68  76 S15       29.67S
GRINNELL*      CLEAR     69  65  85 SE9       29.74F
KNOXVILLE *    MOCLDY    73  66  78 S12       29.70S
MARSHALLTOWN   PTCLDY    70  66  87 SE10      29.69F
NEWTON *       PTCLDY    72  66  83 S9G17     29.71S
PELLA *        CLEAR     72  65  80 SE7       29.73S
PERRY *          N/A     73  70  89 S8        29.67F
$$

IAZ004>006-015-016-023>025-035-036-201100-
   NORTH CENTRAL IOWA

CITY           SKY/WX    TMP DP  RH WIND       PRES   REMARKS
ALGONA *       PTCLDY    68  66  94 NW5       29.65F
CLARION *        N/A     73  70  88 S10G17    29.68R
ESTHERVILLE    CLEAR     60  60 100 CALM      29.65S
FORT DODGE *   CLOUDY    74  69  85 S8        29.67R
MASON CITY     CLOUDY    71  66  84 S16G30    29.68R
FOREST CITY *  MOCLDY    72  66  83 S9        29.67F
IOWA FALLS *     N/A     72  66  83 S13       29.69S
$$

IAZ007>011-017>019-026>030-037>042-050>054-066-201100-
   NORTHEAST IOWA

CITY           SKY/WX    TMP DP  RH WIND       PRES   REMARKS
CEDAR RAPIDS   CLEAR     69  65  86 SE10      29.76F
CHARLES CITY * PTCLDY    72  68  88 S13G22    29.69S
CLINTON *      MOCLDY    67  64  90 SE12      29.84F
DECORAH *      PTCLDY    70  64  83 S14G23    29.72F
DUBUQUE        PTCLDY    66  63  90 S17       29.81F
MONTICELLO *   CLEAR     68  64  88 SE12G17   29.78F
OELWEIN *      CLOUDY    70  66  88 SE16      29.74F
WATERLOO       CLEAR     69  64  84 S14G24    29.69F
$$

IAZ064-065-067-068-078-201100-
   EAST CENTRAL IOWA

CITY           SKY/WX    TMP DP  RH WIND       PRES   REMARKS
DAVENPORT      CLEAR     67  63  87 SE8       29.85S
IOWA CITY      CLEAR     69  65  86 SE8       29.79F
MT. PLEASANT * CLEAR     68  65  91 SE6       29.80S
MUSCATINE *    CLEAR     70  64  83 SE6       29.81F
QUAD CITIES    CLEAR     68  63  84 E6        29.83R
$$

IAZ062-063-075>077-085>089-095>099-201100-
   SOUTHEAST IOWA

CITY           SKY/WX    TMP DP  RH WIND       PRES   REMARKS
BURLINGTON     PTCLDY    71  67  87 S6        29.81R
FAIRFIELD *    CLEAR     70  64  83 SE10      29.77S
FORT MADISON * PTCLDY    70  66  88 S7        29.82S
KEOKUK *       PTCLDY    70  66  88 SE5       29.80S
OSKALOOSA *      N/A     70  65  85 S8        29.75S
CENTERVILLE *    N/A     72  66  83 S9        29.76S
OTTUMWA        CLEAR     72  66  81 S9        29.74S
WASHINGTON *   CLEAR     66  66 100 SE5       29.79S
$$

ABBREVIATIONS USED IN REMARKS
   TC - TEMPERATURES IN CELSIUS
  WCI - WIND CHILL INDEX
   HX - HEAT INDEX
  VSB - VISIBILITY
$$





USA.gov is the U.S. government's official web portal to all federal, state and local government web resources and services.